Other Surface Observations
Issued by NWS Jacksonville, FL

Home | Current Version | Previous Version | Text Only | Print | Product List | Glossary On
Versions: 1 2 3 4 5 6 7 8 9 10 11 12 13 14 15 16 17 18 19 20 21 22 23 24 25 26 27 28 29 30 31 32 33 34 35 36 37 38 39 40 41 42 43 44 45 46 47 48 49 50
335
SXUS52 KJAX 060813
OSOJAX
OTHER SURFACE OBSERVATIONS
NATIONAL WEATHER SERVICE JACKSONVILLE FL
300 AM EST TUE DEC 06 2016

FLZ020>025-030>033-035>038-040-060900-
...FLORIDA...

CITY           SKY/WX    TMP DP  RH WIND       PRES   REMARKS
CECIL FIELD    RAIN      72  72 100 W14       29.85R
HERLONG FIELD  NOT AVBL
FERNANDINA BCH NOT AVBL
LAKE CITY      TSTM      70  70 100 S10       29.83F
JUNIPER SPGS   NOT AVBL
BUNNELL        NOT AVBL
KEYSTONE HGTS    N/A     72  72 100 SW12      29.84S
$$

GAZ132>136-149>154-162>166-060900-
...GEORGIA...

CITY           SKY/WX    TMP DP  RH WIND       PRES   REMARKS
JESUP          HVY RAIN  64  64 100 S6        29.82R
HOMERVILLE     CLOUDY    72  72 100 S9G17     29.78S
SWAINSBORO     LGT RAIN  59  59 100 SE9       29.80F
CORDELE        NOT AVBL
EASTMAN        DRIZZLE   60  60 100 SE6       29.81F
$$

PLEASE NOTE:  THESE OBSERVATIONS ARE NOT QUALITY CONTROLLED AND MAY
NOT BE AVAILABLE AT ALL TIMES.
$$




USA.gov is the U.S. government's official web portal to all federal, state and local government web resources and services.